Weather in Maykop

Russia / Republic of Adygea     44˚36′31″N   40˚05′54″E
temp.,
°C
wind,
m/s
gust,
m/s
humid.,
%
clouds,
%
prec.,
mm/h
press.,
hPa
HPBL,
m
2 december, wed
wed200:00+4˚sse11690 0.0 102222
03:00+4˚sse116938 0.0 102222
06:00+6˚s116596 0.0 102222
09:00+7˚se116790 0.1 102330
12:00+11˚n115186 0.0 1023230
15:00+10˚ne225382 0.0 1022232
18:00+8˚ese116179 0.0 102323
21:00+7˚ese116583 0.0 102423
3 december, thu
thu300:00+6˚ese017065 0.0 102422
03:00+6˚ssw117668 0.0 102422
06:00+6˚ese117792 0.0 102422
09:00+7˚ese017573 0.0 102522
12:00+12˚nnw11570 0.0 1024270
15:00+12˚nne236025 0.0 1023260
18:00+8˚e117354 0.0 102423
21:00+7˚ese117946 0.0 102422
4 december, fri
fri400:00+6˚se118272 0.0 102422
03:00+5˚se118336 0.0 102422
06:00+5˚se11803 0.0 102322
09:00+6˚ene01741 0.0 102422
12:00+11˚n22550 0.0 1022267
15:00+11˚nne23580 0.0 1021324
18:00+6˚e11750 0.0 102244
21:00+5˚e11820 0.0 102229
5 december, sat
sat500:00+4˚ene11850 0.0 102224
03:00+3˚nne01890 0.0 102323
06:00+2˚nne01910 0.0 102223
09:00+4˚ne11830 0.0 102248
12:00+8˚ne12610 0.0 1021360
15:00+9˚ene24570 0.0 1021598
18:00+5˚ene38730 0.0 1021292
21:00+3˚e35830 0.0 1022181
6 december, sun
sun600:00+3˚e25860 0.0 1022161
03:00+2˚e24880 0.0 1023125
06:00+1˚e24880 0.0 1023116
09:00+3˚e25800 0.0 1023230
12:00+7˚ene36620 0.0 1023550
15:00+7˚ene58600 0.0 1022691
18:00+3˚ene511720 0.0 1023528
21:00+2˚ene411770 0.0 1024502